TimeCDT,TemperatureF,Dew PointF,Humidity,Sea Level PressureIn,VisibilityMPH,Wind Direction,Wind SpeedMPH,Gust SpeedMPH,PrecipitationIn,Events,Conditions,WindDirDegrees,DateUTC
12:53 AM,75.9,70.0,82,29.70,10.0,South,12.7,-,N/A,,Partly Cloudy,180,2013-08-20 05:53:00
1:53 AM,73.9,70.0,87,29.70,10.0,South,9.2,-,N/A,,Partly Cloudy,190,2013-08-20 06:53:00
2:53 AM,72.0,69.1,91,29.70,8.0,South,6.9,-,N/A,,Clear,190,2013-08-20 07:53:00
3:53 AM,70.0,69.1,97,29.69,6.0,South,8.1,-,N/A,,Clear,180,2013-08-20 08:53:00
4:53 AM,69.1,68.0,96,29.69,5.0,South,6.9,-,N/A,,Clear,170,2013-08-20 09:53:00
5:53 AM,68.0,66.9,96,29.69,6.0,South,6.9,-,N/A,,Clear,170,2013-08-20 10:53:00
6:53 AM,68.0,66.9,96,29.70,4.0,South,4.6,-,N/A,,Partly Cloudy,170,2013-08-20 11:53:00
7:53 AM,70.0,68.0,93,29.71,5.0,South,8.1,-,N/A,,Clear,180,2013-08-20 12:53:00
8:53 AM,73.9,69.1,85,29.72,9.0,SW,5.8,-,N/A,,Clear,220,2013-08-20 13:53:00
9:53 AM,78.1,68.0,71,29.71,10.0,SSW,3.5,-,N/A,,Clear,210,2013-08-20 14:53:00
10:53 AM,82.0,66.9,60,29.71,10.0,SSE,4.6,-,N/A,,Clear,160,2013-08-20 15:53:00
11:53 AM,86.0,66.9,53,29.70,10.0,South,5.8,-,N/A,,Clear,190,2013-08-20 16:53:00
12:53 PM,90.0,66.9,46,29.70,10.0,Variable,5.8,-,N/A,,Clear,0,2013-08-20 17:53:00
1:53 PM,93.0,62.1,36,29.68,10.0,SSW,5.8,-,N/A,,Clear,200,2013-08-20 18:53:00
2:53 PM,95.0,61.0,32,29.65,10.0,South,12.7,-,N/A,,Clear,170,2013-08-20 19:53:00
3:53 PM,96.1,63.0,33,29.63,10.0,South,13.8,-,N/A,,Clear,180,2013-08-20 20:53:00
4:53 PM,96.1,62.1,32,29.62,10.0,SSW,16.1,23.0,N/A,,Clear,210,2013-08-20 21:53:00
5:53 PM,96.1,63.0,33,29.61,10.0,SSW,15.0,24.2,N/A,,Clear,210,2013-08-20 22:53:00
6:53 PM,93.9,66.9,41,29.59,10.0,South,15.0,23.0,N/A,,Clear,180,2013-08-20 23:53:00
7:53 PM,90.0,64.9,43,29.59,10.0,South,13.8,-,N/A,,Partly Cloudy,190,2013-08-21 00:53:00
8:53 PM,84.9,64.9,51,29.63,10.0,WSW,10.4,-,N/A,,Partly Cloudy,240,2013-08-21 01:53:00
9:53 PM,81.0,64.9,58,29.65,10.0,WSW,6.9,-,N/A,,Partly Cloudy,250,2013-08-21 02:53:00
10:53 PM,80.1,62.1,54,29.65,10.0,WSW,4.6,-,N/A,,Mostly Cloudy,240,2013-08-21 03:53:00
11:36 PM,71.6,62.6,73,29.72,10.0,NNW,15.0,-,0.02,Rain,Light Rain,330,2013-08-21 04:36:00
11:53 PM,70.0,62.1,76,29.72,10.0,NNW,17.3,20.7,0.03,Rain,Light Rain,340,2013-08-21 04:53:00